Погода в Бородинке

Россия / Омская область     57°27′46″N   72°58′06″E
темп.,
°C
ветер,
м/с
пор.,
м/с
влажн.,
%
обл.,
%
осадки,
мм/ч
давл.,
гПа
погр.,
м
17 апреля, сб
сб1700:00−3ссв37715 0.1 1027727
03:00−4с24755 0.0 1027449
06:00−4сз1274100 0.0 1028266
09:00−2зюз2351100 0.0 1027557
12:00+3зюз353848 0.0 10251068
15:00+5юз473498 0.0 10221666
18:00+5юз4947100 0.0 10191343
21:00+3юз41259100 0.0 1016523
18 апреля, вс
вс1800:00+3з31166100 0.0 1014482
03:00+1зюз3980100 0.0 1012244
06:00+1юз3885100 0.0 1009293
09:00+4зюз51177100 0.3 10061105
12:000сз71189100 1.8 1007812
15:00−3с71273100 0.2 10141365
18:00−4с7125563 0.4 10191526
21:00−8с612585 0.0 10241298
19 апреля, пн
пн1900:00−9с5966100 0.0 10261271
03:00−10ссз510605 0.0 10281158
06:00−9ссз4861100 0.1 10301278
09:00−8с5849100 0.0 10321554
12:00−5ссз5743100 0.1 10321888
15:00−3ссз5737100 0.0 10322099
18:00−3ссз4636100 0.0 10321851
21:00−5ссз22535 0.0 103327
20 апреля, вт
вт2000:00−6зсз11585 0.0 103318
03:00−7з24625 0.0 103297
06:00−7зюз2759100 0.0 1031241
09:00−3зюз4840100 0.0 1030686
12:00+1зюз5936100 0.0 10261457
15:00+1з5969100 0.0 10241151
18:00+2зсз4107699 0.7 10221063
21:00+2зсз31172100 0.1 1020477
21 апреля, ср
ср2100:00+2зсз51295100 0.4 1020862
03:00+2сз51285100 0.0 1019789
06:00+1ссз51190100 0.1 10211002
09:00+2с597065 0.1 10241118
12:00+3с586885 0.2 10261244
15:00+3с4767100 0.0 10291199
18:00+3св366888 0.1 10321069
21:00−2св25875 0.0 103695